カタログに戻る

OPS 4682 DEB

運用中PO
NORAD 11631·DEBRIS·🇺🇸 United States

打ち上げ Apr 3, 1965 から Vandenberg Space Force Base

Loading…

次のパス (今後24時間)

TLE

最新Source: Space-Track

元期: Sep 14, 2026, 13:29 UTC

1 11631U 65027F   26257.56192162 -.00000140  00000-0 -51127-3 0  9992
2 11631  90.2421   7.9499 0041842 197.4237 175.6940 12.96784997137366

AllMySatでOPS 4682 DEBをリアルタイム追跡

Download on the App Store